Terug naar catalogus

COSMOS 2251 DEB

ActiefLEO
NORAD 34571·DEBRIS·🇷🇺 Russia

Gelanceerd Jun 16, 1993 vanaf Plesetsk Cosmodrome

Loading…

Volgende Passages (komende 24 uur)

TLE

VersSource: Space-Track

Epoch: Sep 14, 2026, 08:22 UTC

1 34571U 93036VH  26257.34899273  .00004192  00000-0  99281-3 0  9996
2 34571  74.0394  23.7697 0063295 352.7251   7.2985 14.53146606912923

Volg COSMOS 2251 DEB in realtime met AllMySat

Download on the App Store